When you browse on this site, cookies collect data to enhance your experience and personalize the content and advertising you see.
Visit our Privacy Policy to learn more. By continuing to use the site, you agree to this use of cookies and data.
  • în România
  • Lista ţărilor
  • Pe 7 zile
  • Temperatura apei
  • Hartă satelitară
  • Meteo pe hartă
  • Widget-uri
  • user-avatar
    Intrare

    Meteo pe oră la Melbourne

    Astăzi, 24 Iunie, Luni

    Timp Temperatura Precipitaţii Vânt Presiune Umiditate
    00:00 +6°C° 0 mm 1 m/s 773 mmHg 87%
    01:00 +6°C° 0 mm 1 m/s 772 mmHg 87%
    02:00 +6°C° 0 mm 1 m/s 773 mmHg 87%
    03:00 +6°C° 0 mm 1 m/s 773 mmHg 87%
    04:00 +5°C° 0 mm 1 m/s 773 mmHg 86%
    05:00 +5°C° 0 mm 1 m/s 773 mmHg 84%
    06:00 +5°C° 0 mm 1 m/s 773 mmHg 83%
    07:00 +5°C° 0 mm 1 m/s 773 mmHg 82%
    08:00 +6°C° 0 mm 1 m/s 773 mmHg 74%
    09:00 +8°C° 0 mm 1 m/s 774 mmHg 67%
    10:00 +10°C° 0 mm 1 m/s 774 mmHg 55%
    11:00 +11°C° 0 mm 1 m/s 773 mmHg 50%
    12:00 +13°C° 0 mm 1 m/s 772 mmHg 45%
    13:00 +14°C° 0 mm 0 m/s 772 mmHg 40%
    14:00 +15°C° 0 mm 1 m/s 772 mmHg 42%
    15:00 +14°C° 0 mm 1 m/s 772 mmHg 45%
    16:00 +14°C° 0 mm 1 m/s 772 mmHg 47%
    17:00 +13°C° 0 mm 1 m/s 772 mmHg 52%
    18:00 +11°C° 0 mm 1 m/s 772 mmHg 57%
    19:00 +9°C° 0 mm 2 m/s 773 mmHg 62%
    20:00 +8°C° 0 mm 2 m/s 773 mmHg 63%
    21:00 +8°C° 0 mm 2 m/s 773 mmHg 64%
    22:00 +7°C° 0 mm 2 m/s 774 mmHg 65%
    23:00 +7°C° 0 mm 2 m/s 773 mmHg 64%

    Mâine, 25 Iunie, Marţi

    Timp Temperatura Precipitaţii Vânt Presiune Umiditate
    00:00 +7°C° 0 mm 2 m/s 773 mmHg 63%
    01:00 +6°C° 0 mm 2 m/s 773 mmHg 62%
    02:00 +6°C° 0 mm 2 m/s 773 mmHg 61%
    03:00 +6°C° 0 mm 2 m/s 773 mmHg 61%
    04:00 +6°C° 0 mm 2 m/s 773 mmHg 61%
    05:00 +6°C° 0 mm 2 m/s 773 mmHg 60%
    06:00 +6°C° 0 mm 2 m/s 774 mmHg 59%
    07:00 +6°C° 0 mm 2 m/s 774 mmHg 59%
    08:00 +7°C° 0 mm 2 m/s 774 mmHg 57%
    09:00 +8°C° 0 mm 2 m/s 774 mmHg 55%
    10:00 +10°C° 0 mm 2 m/s 774 mmHg 53%
    11:00 +12°C° 0 mm 2 m/s 774 mmHg 52%
    12:00 +14°C° 0 mm 2 m/s 774 mmHg 52%
    13:00 +15°C° 0 mm 2 m/s 773 mmHg 51%
    14:00 +15°C° 0 mm 2 m/s 773 mmHg 54%
    15:00 +15°C° 0 mm 2 m/s 773 mmHg 57%
    16:00 +14°C° 0 mm 2 m/s 773 mmHg 60%
    17:00 +13°C° 0 mm 2 m/s 773 mmHg 65%
    18:00 +12°C° 0 mm 2 m/s 773 mmHg 70%
    19:00 +9°C° 0 mm 2 m/s 774 mmHg 75%
    20:00 +9°C° 0 mm 2 m/s 774 mmHg 75%
    21:00 +8°C° 0 mm 2 m/s 775 mmHg 75%
    22:00 +9°C° 0 mm 1 m/s 775 mmHg 76%
    23:00 +8°C° 0 mm 1 m/s 775 mmHg 77%

    Poimâine, 26 Iunie, Miercuri

    Timp Temperatura Precipitaţii Vânt Presiune Umiditate
    00:00 +8°C° 0 mm 1 m/s 775 mmHg 77%
    01:00 +8°C° 0 mm 1 m/s 775 mmHg 77%
    02:00 +8°C° 0 mm 1 m/s 775 mmHg 77%
    03:00 +8°C° 0 mm 1 m/s 775 mmHg 77%
    04:00 +7°C° 0 mm 1 m/s 775 mmHg 77%
    05:00 +7°C° 0 mm 1 m/s 775 mmHg 76%
    06:00 +6°C° 0 mm 2 m/s 775 mmHg 75%
    07:00 +6°C° 0 mm 2 m/s 775 mmHg 74%
    08:00 +9°C° 0 mm 1 m/s 775 mmHg 68%
    09:00 +10°C° 0 mm 1 m/s 775 mmHg 62%
    10:00 +11°C° 0 mm 1 m/s 775 mmHg 56%
    11:00 +13°C° 0 mm 1 m/s 775 mmHg 52%
    12:00 +15°C° 0 mm 2 m/s 774 mmHg 47%
    13:00 +16°C° 0 mm 2 m/s 774 mmHg 43%
    14:00 +16°C° 0 mm 2 m/s 774 mmHg 45%
    15:00 +16°C° 0 mm 2 m/s 773 mmHg 47%
    16:00 +15°C° 0 mm 2 m/s 773 mmHg 50%
    17:00 +14°C° 0 mm 2 m/s 774 mmHg 56%
    18:00 +12°C° 0 mm 2 m/s 774 mmHg 63%
    19:00 +10°C° 0 mm 2 m/s 774 mmHg 69%
    20:00 +9°C° 0 mm 2 m/s 774 mmHg 72%
    21:00 +9°C° 0 mm 2 m/s 774 mmHg 75%
    22:00 +8°C° 0 mm 2 m/s 774 mmHg 78%
    23:00 +8°C° 0 mm 2 m/s 774 mmHg 79%

    27 Iunie, Joi

    Timp Temperatura Precipitaţii Vânt Presiune Umiditate
    00:00 +8°C° 0 mm 2 m/s 774 mmHg 80%
    01:00 +8°C° 0 mm 2 m/s 774 mmHg 81%
    02:00 +8°C° 0 mm 3 m/s 773 mmHg 80%
    03:00 +8°C° 0 mm 3 m/s 773 mmHg 79%
    04:00 +8°C° 0 mm 3 m/s 773 mmHg 79%
    05:00 +7°C° 0 mm 4 m/s 773 mmHg 79%
    06:00 +7°C° 0 mm 4 m/s 773 mmHg 78%
    07:00 +7°C° 0 mm 4 m/s 773 mmHg 78%
    08:00 +8°C° 0 mm 5 m/s 773 mmHg 74%
    09:00 +9°C° 0 mm 5 m/s 774 mmHg 69%
    10:00 +11°C° 0 mm 6 m/s 774 mmHg 65%
    11:00 +13°C° 0 mm 5 m/s 773 mmHg 62%
    12:00 +14°C° 0 mm 5 m/s 772 mmHg 58%
    13:00 +15°C° 0 mm 5 m/s 772 mmHg 55%
    14:00 +15°C° 0 mm 5 m/s 772 mmHg 58%
    15:00 +15°C° 0 mm 4 m/s 771 mmHg 61%
    16:00 +15°C° 0 mm 4 m/s 771 mmHg 64%
    17:00 +14°C° 0 mm 4 m/s 771 mmHg 69%
    18:00 +13°C° 0 mm 4 m/s 771 mmHg 74%
    19:00 +11°C° 0 mm 4 m/s 771 mmHg 79%
    20:00 +11°C° 0 mm 4 m/s 771 mmHg 79%
    21:00 +11°C° 0 mm 4 m/s 771 mmHg 78%
    22:00 +11°C° 0 mm 4 m/s 771 mmHg 77%
    23:00 +11°C° 0 mm 4 m/s 771 mmHg 78%

    28 Iunie, Vineri

    Timp Temperatura Precipitaţii Vânt Presiune Umiditate
    00:00 +11°C° 0 mm 4 m/s 771 mmHg 78%
    01:00 +10°C° 0 mm 5 m/s 771 mmHg 78%
    02:00 +10°C° 0 mm 5 m/s 771 mmHg 77%
    03:00 +10°C° 0 mm 5 m/s 770 mmHg 76%
    04:00 +10°C° 0 mm 5 m/s 770 mmHg 75%
    05:00 +10°C° 0 mm 5 m/s 770 mmHg 75%
    06:00 +10°C° 0 mm 6 m/s 770 mmHg 75%
    07:00 +10°C° 0 mm 6 m/s 770 mmHg 74%
    08:00 +11°C° 0 mm 6 m/s 770 mmHg 70%
    09:00 +11°C° 0 mm 7 m/s 770 mmHg 66%
    10:00 +12°C° 0 mm 7 m/s 770 mmHg 61%
    11:00 +14°C° 0 mm 7 m/s 769 mmHg 59%
    12:00 +15°C° 0 mm 7 m/s 769 mmHg 58%
    13:00 +16°C° 0 mm 6 m/s 768 mmHg 56%
    14:00 +16°C° 0 mm 6 m/s 767 mmHg 58%
    15:00 +16°C° 0 mm 6 m/s 767 mmHg 60%
    16:00 +15°C° 0 mm 5 m/s 766 mmHg 62%
    17:00 +14°C° 0 mm 5 m/s 766 mmHg 66%
    18:00 +13°C° 0 mm 5 m/s 766 mmHg 70%
    19:00 +12°C° 0 mm 5 m/s 766 mmHg 74%
    20:00 +12°C° 0 mm 5 m/s 766 mmHg 73%
    21:00 +12°C° 0 mm 5 m/s 765 mmHg 72%
    22:00 +13°C° 0 mm 5 m/s 765 mmHg 71%
    23:00 +13°C° 0.1 mm 6 m/s 764 mmHg 72%

    29 Iunie, Sâmbătă

    Timp Temperatura Precipitaţii Vânt Presiune Umiditate
    00:00 +13°C° 0.1 mm 6 m/s 764 mmHg 72%
    01:00 +12°C° 0.1 mm 7 m/s 763 mmHg 73%
    02:00 +12°C° 0.3 mm 7 m/s 762 mmHg 75%
    03:00 +12°C° 0.3 mm 8 m/s 761 mmHg 78%
    04:00 +11°C° 0.3 mm 8 m/s 761 mmHg 81%
    05:00 +11°C° 0.4 mm 8 m/s 760 mmHg 81%
    06:00 +11°C° 0.4 mm 8 m/s 760 mmHg 82%
    07:00 +11°C° 0.4 mm 8 m/s 760 mmHg 82%
    08:00 +11°C° 0.6 mm 8 m/s 759 mmHg 82%
    09:00 +11°C° 0.6 mm 9 m/s 759 mmHg 81%
    10:00 +11°C° 0.6 mm 9 m/s 759 mmHg 81%
    11:00 +11°C° 1.9 mm 9 m/s 758 mmHg 83%
    12:00 +11°C° 1.9 mm 8 m/s 758 mmHg 84%
    13:00 +10°C° 1.9 mm 8 m/s 757 mmHg 86%
    14:00 +10°C° 1.6 mm 7 m/s 757 mmHg 83%
    15:00 +10°C° 1.6 mm 6 m/s 758 mmHg 80%
    16:00 +10°C° 1.6 mm 5 m/s 758 mmHg 78%
    17:00 +10°C° 0.4 mm 5 m/s 758 mmHg 79%
    18:00 +9°C° 0.4 mm 5 m/s 759 mmHg 80%
    19:00 +9°C° 0.4 mm 5 m/s 759 mmHg 81%
    20:00 +10°C° 0.6 mm 4 m/s 759 mmHg 81%
    21:00 +8°C° 0.6 mm 4 m/s 760 mmHg 80%
    22:00 +9°C° 0.6 mm 3 m/s 760 mmHg 80%
    23:00 +9°C° 0 mm 3 m/s 761 mmHg 80%
    Arată mai mult